[[{"header":{"parameterUnit":"m.s-1","parameterCategory":1,"la1":30.2991,"la2":30.254,"lo1":-89.0895,"lo2":-89.0444,"dy":0.0017,"dx":0.0017,"nx":28,"ny":28,"refTime":"2026-01-07T03:00:00:Z","depth":0,"parameterNumber":2,"parameterNumberName":"U-component_of_WINDS"},"data":[0,0,0,0,0,0,0,0,0,0,0,0,0,0,0,0,0,0,0,0,0,0,0,0,0,0,0,0,0,0,0,0,0,0,0,0,0,0,0,0,0,0,0,0,0,0,0,0,0,0,0,0,0,0,0,0,0,0,0.9532,0.9533,0,0.965,0.9651,0.9652,0.9662,0.9661,0.966,0.9658,0.9783,0.9787,0.9792,0,0,0,0,0,0,0,0,0,0,0,0,0,0.9317,0.9321,0.9531,0.9533,0.9534,0.9649,0.9651,0.9653,0.9662,0.9661,0.9659,0.9658,0.9781,0.9787,0.9792,0,0,0,0,0,0,0,0,0,0,0,0,0,0.942,0.9322,0.9531,0.9553,0.9556,0.9649,0.9651,0.9653,0.9663,0.9661,0.9659,0.9657,0.978,0.9786,0.9793,0.9873,0,0,0.9814,0.9817,0,0,0,0,0,0,0,0,0.9415,0.9428,0.9548,0.9552,0.9555,0.9639,0.9621,0.9727,0.9663,0.9622,0.9658,0.9656,0.9737,0.9747,0.9774,0.9879,0.9885,0.9814,0.9818,0.9821,0.9823,0,0,0,0,0,0,0,0.9407,0.9423,0.9578,0.955,0.9554,0.9558,0.957,0.9641,0.9689,0.9626,0.9627,0.964,0.9738,0.9767,0.9777,0.9886,0.9814,0.982,0.9824,0.9827,1.0064,1.0067,0,0,0,0,0,0,0.9396,0.9417,0.9575,0.9582,0.9479,0.9563,0.9577,0.9614,0.9688,0.9698,0.9642,0.964,0.9756,0.9769,0.9781,0.9881,0.9821,0.9828,0.9831,1.0062,1.0065,1.0067,0,0,0,0,0,0,0.9391,0.941,0.957,0.95,0.952,0.9569,0.961,0.9618,0.9646,0.9701,0.9709,0.9662,0.9755,0.9771,0.985,0.9885,0.9831,0.9837,1.006,1.0063,1.0066,1.008,0,0,0,0,0,0,0.9385,0.9408,0.9438,0.95,0.9524,0.9636,0.9613,0.9621,0.9657,0.9657,0.9722,0.9731,0.9755,0.984,0.9857,0.9893,0.9842,1.0057,1.0061,1.0065,1.0076,1.0083,1.0089,0,0,0,0,0,0.9377,0.9438,0.944,0.9459,0.9563,0.9638,0.9652,0.9677,0.966,0.9692,0.9726,0.9729,0.9878,0.9848,0.9867,0.9906,1.0055,1.006,1.0065,1.0074,1.0082,1.0089,0,0,0,0,0,0,0.938,0.9447,0.9449,0.9532,0.9579,0.9639,0.968,0.9685,0.9739,0.9736,0.9767,0.9782,0.9859,0.9891,0.9856,0.9988,0.9965,0.9974,0.9965,0.9973,0.9979,0.9971,0.9848,0,0,0,0,0,0.939,0.9444,0.95,0.9567,0.9591,0.9631,0.9665,0.968,0.9731,0.9752,0.9792,0.9842,0.9901,0.9938,0.9995,1.008,1.0095,1.0117,1.0123,1.0128,1.0136,1.0184,1.0194,1.0084,1.0084,1.0084,0,0,0.9411,0.9454,0.9487,0.9569,0.9607,0.9664,0.9648,0.9709,0.9751,0.9761,0.9838,0.9869,0.9927,1.001,1.0048,1.0038,1.0169,1.0134,1.0138,1.0143,1.019,1.0201,1.021,1.0087,1.0087,1.0086,0,0,0.948,0.9517,0.9578,0.9616,0.9674,0.9701,0.9715,0.9775,0.9796,0.9873,0.9882,0.9934,1.0033,1.0074,1.0108,1.0191,1.0196,1.0209,1.0242,1.0289,1.0298,1.0305,1.0336,1.0347,1.0217,1.0217,1.0217,0,0.9499,0.9584,0.9609,0.9669,0.9705,0.9715,0.9777,0.9814,0.9888,0.9913,0.99,1.0025,1.0065,1.0158,1.0178,1.0205,1.0223,1.0202,1.0294,1.0302,1.031,1.034,1.0351,1.0218,1.0218,1.0218,1.0217,0,0.9606,0.9665,0.9707,0.9777,0.9818,0.9879,0.9913,0.9952,0.9964,0.9992,1.0071,1.0118,1.0185,1.0208,1.022,1.0303,1.0294,1.0287,1.0265,1.0321,1.035,1.0361,1.022,1.0219,1.0219,1.0219,0,0,0.968,0.9762,0.9778,0.981,0.9874,0.9921,0.9982,1.0046,1.0079,1.013,1.0183,1.0267,1.0261,1.0299,1.0316,1.0357,1.0421,1.0345,1.0347,1.0359,1.0515,1.0521,1.0534,1.0424,1.0426,1.0428,1.0511,0,0.9756,0.9865,0.9889,0.9984,1.0039,1.0049,1.0103,1.0149,1.0177,1.0228,1.0259,1.0319,1.0305,1.0329,1.0369,1.0405,1.0453,1.0399,1.0475,1.0478,1.0461,1.0548,1.0554,1.063,1.0522,1.0524,1.0525,0,0.986,0.9912,1.0012,1.0069,1.0093,1.0141,1.0202,1.0251,1.0303,1.0321,1.0363,1.0376,1.0442,1.0415,1.0507,1.0469,1.0502,1.0524,1.0527,1.0536,1.0506,1.0561,1.0655,1.0667,1.0543,1.0541,1.054,0,0.9905,1.0,1.0072,1.0099,1.0168,1.0202,1.0232,1.0282,1.032,1.0373,1.0397,1.0458,1.0491,1.0538,1.0568,1.0545,1.0657,1.0633,1.0675,1.0674,1.0699,1.0697,1.0801,1.0718,1.0718,1.0717,1.0717,0,0.9988,1.0049,1.0093,1.0138,1.0207,1.0234,1.0301,1.0332,1.0377,1.0428,1.0441,1.0489,1.0524,1.0577,1.0601,1.0673,1.0688,1.0705,1.0711,1.0704,1.0702,1.0727,1.0723,1.072,1.072,1.0719,1.0719,0,1.005,1.0082,1.0162,1.022,1.0236,1.0284,1.0335,1.0379,1.0406,1.0471,1.0488,1.0532,1.0595,1.0629,1.0708,1.0724,1.0806,1.0808,1.0788,1.0791,1.0831,1.0827,1.0955,1.0974,1.0877,1.0878,1.0879,0,1.0102,1.0149,1.0212,1.0247,1.0277,1.0333,1.0371,1.0399,1.0438,1.0502,1.0539,1.0602,1.0655,1.0756,1.0796,1.0857,1.0861,1.0902,1.087,1.0863,1.0863,1.086,1.0865,1.0908,1.0908,1.0909,1.091,0,1.019,1.0203,1.0256,1.0316,1.036,1.0408,1.0456,1.0484,1.052,1.0563,1.0627,1.0668,1.0749,1.0813,1.0876,1.0909,1.0916,1.0919,1.0932,1.0927,1.0914,1.0922,1.0804,1.0916,1.0916,1.0915,1.0915,1.0915,1.0249,1.0291,1.0342,1.0402,1.044,1.0484,1.0529,1.0561,1.0615,1.0683,1.0696,1.0765,1.0817,1.0903,1.0937,1.0992,1.0984,1.1003,1.1008,1.1012,1.1014,1.0904,1.1004,1.1004,1.1003,1.1003,1.1003,0,1.0338,1.0372,1.0426,1.0491,1.0538,1.0539,1.0592,1.0631,1.0691,1.0738,1.079,1.0864,1.0926,1.097,1.1033,1.1068,1.1073,1.1084,1.1082,1.109,1.1018,1.1,1.1079,1.1079,1.1079,1.1079,1.1079,1.1079,1.0391,1.0463,1.0482,1.0574,1.0607,1.0673,1.0704,1.0745,1.0783,1.0865,1.0916,1.0944,1.099,1.1057,1.1114,1.1125,1.1148,1.1159,1.1171,1.1103,1.1095,1.1087,1.1071,1.1164,1.1164,1.1239,1.124,1.124]},{"header":{"parameterUnit":"m.s-1","parameterCategory":1,"la1":30.2991,"la2":30.254,"lo1":-89.0895,"lo2":-89.0444,"dy":0.0017,"dx":0.0017,"nx":28,"ny":28,"refTime":"2026-01-07T03:00:00:Z","depth":0,"parameterNumber":3,"parameterNumberName":"V-component_of_WINDS"},"data":[0,0,0,0,0,0,0,0,0,0,0,0,0,0,0,0,0,0,0,0,0,0,0,0,0,0,0,0,0,0,0,0,0,0,0,0,0,0,0,0,0,0,0,0,0,0,0,0,0,0,0,0,0,0,0,0,0,0,3.5918,3.5919,0,3.5965,3.5966,3.5966,3.5925,3.5924,3.5922,3.592,3.5964,3.5966,3.5969,0,0,0,0,0,0,0,0,0,0,0,0,0,3.5788,3.5791,3.5918,3.5919,3.5919,3.5965,3.5966,3.5966,3.5926,3.5924,3.5922,3.592,3.5963,3.5966,3.5969,0,0,0,0,0,0,0,0,0,0,0,0,0,3.5841,3.5792,3.5918,3.5905,3.5904,3.5965,3.5966,3.5966,3.5926,3.5924,3.5921,3.5919,3.5962,3.5966,3.597,3.6045,0,0,3.5982,3.5984,0,0,0,0,0,0,0,0,3.5838,3.5846,3.5906,3.5906,3.5905,3.5937,3.5936,3.5993,3.5927,3.5918,3.592,3.5917,3.5957,3.5961,3.5975,3.6047,3.6049,3.5983,3.5985,3.5987,3.5988,0,0,0,0,0,0,0,3.5834,3.5843,3.5937,3.5907,3.5906,3.5895,3.5899,3.5946,3.595,3.5918,3.5915,3.5922,3.5956,3.5971,3.5976,3.6049,3.5983,3.5986,3.5989,3.599,3.6184,3.6187,0,0,0,0,0,0,3.5833,3.5841,3.5935,3.5938,3.5865,3.5899,3.5904,3.5929,3.595,3.5951,3.5924,3.592,3.5966,3.5971,3.5977,3.6067,3.5987,3.5991,3.5993,3.6181,3.6185,3.6188,0,0,0,0,0,0,3.583,3.5842,3.5933,3.5889,3.5899,3.5904,3.5932,3.5931,3.5947,3.5954,3.5954,3.5939,3.5964,3.5971,3.6028,3.6067,3.5992,3.5996,3.6178,3.6182,3.6186,3.6246,0,0,0,0,0,0,3.5827,3.5841,3.5871,3.589,3.5902,3.5986,3.5935,3.5934,3.5955,3.595,3.5969,3.5969,3.5962,3.6023,3.6033,3.6072,3.5999,3.6175,3.618,3.6185,3.6241,3.6252,3.6261,0,0,0,0,0,3.5822,3.5885,3.5873,3.5884,3.594,3.5988,3.5995,3.5987,3.5958,3.5987,3.5991,3.5969,3.6061,3.6029,3.604,3.6081,3.6172,3.6179,3.6185,3.6236,3.6249,3.6261,0,0,0,0,0,0,3.5869,3.5887,3.5874,3.5945,3.5966,3.5981,3.6018,3.6002,3.603,3.6024,3.6011,3.6016,3.6076,3.6083,3.6047,3.6154,3.6112,3.612,3.6147,3.616,3.617,3.6168,3.6003,0,0,0,0,0,3.5888,3.5928,3.594,3.6002,3.6013,3.6014,3.6034,3.6027,3.6047,3.6055,3.6063,3.6082,3.6116,3.6138,3.6169,3.6241,3.6244,3.6274,3.6284,3.6292,3.63,3.6339,3.6352,3.6208,3.6208,3.6208,0,0,3.5928,3.5942,3.5968,3.6012,3.6027,3.6066,3.6021,3.6065,3.6094,3.6061,3.6116,3.6123,3.6143,3.6208,3.6237,3.6216,3.6341,3.63,3.6307,3.631,3.6346,3.636,3.6372,3.6212,3.6211,3.621,0,0,3.602,3.6035,3.6088,3.6104,3.6128,3.6127,3.614,3.6158,3.6162,3.6217,3.6193,3.6225,3.6283,3.6299,3.6314,3.6411,3.6391,3.6421,3.6475,3.6512,3.6524,3.6534,3.6568,3.6581,3.6428,3.6428,3.6428,0,3.6066,3.6126,3.6117,3.6163,3.6183,3.6155,3.6208,3.6223,3.6255,3.6268,3.6244,3.6316,3.6328,3.6396,3.6419,3.6432,3.6446,3.6419,3.6523,3.6533,3.6542,3.6575,3.6588,3.6432,3.6431,3.6431,3.6431,0,3.6181,3.6223,3.6263,3.6296,3.632,3.6369,3.6365,3.639,3.6379,3.6381,3.6437,3.6449,3.6483,3.6497,3.6487,3.6564,3.655,3.6525,3.6483,3.656,3.6591,3.6603,3.6437,3.6436,3.6435,3.6434,0,0,3.6307,3.6333,3.6348,3.6363,3.6386,3.6417,3.6464,3.6498,3.6519,3.6541,3.658,3.6628,3.6605,3.6622,3.6613,3.6645,3.6721,3.6616,3.6616,3.6636,3.6807,3.6827,3.6842,3.6707,3.671,3.6712,3.6806,0,3.6401,3.6485,3.6477,3.6555,3.6594,3.6567,3.6607,3.6625,3.6627,3.6658,3.666,3.6695,3.6661,3.6672,3.6703,3.6706,3.6756,3.6698,3.6743,3.6744,3.674,3.6858,3.688,3.6968,3.6817,3.6819,3.6821,0,3.6522,3.655,3.6634,3.665,3.6666,3.6703,3.6733,3.6763,3.6781,3.6781,3.68,3.6784,3.683,3.6785,3.6847,3.6808,3.6825,3.6829,3.6832,3.6837,3.6789,3.6867,3.6996,3.701,3.684,3.6838,3.6837,0,3.6607,3.6665,3.6722,3.6735,3.6756,3.6782,3.6792,3.6808,3.6828,3.6853,3.6866,3.6895,3.6912,3.6934,3.6926,3.6895,3.699,3.6945,3.699,3.699,3.7013,3.7012,3.7147,3.7022,3.7021,3.7021,3.7021,0,3.6714,3.6766,3.6761,3.6796,3.6853,3.6842,3.6898,3.6903,3.6918,3.6952,3.693,3.6962,3.695,3.6981,3.6975,3.7027,3.7034,3.7034,3.7032,3.7037,3.7037,3.7049,3.7044,3.7025,3.7024,3.7023,3.7022,0,3.6819,3.6818,3.6878,3.6893,3.6898,3.6939,3.695,3.6983,3.6982,3.7027,3.7036,3.7036,3.7071,3.7065,3.7104,3.71,3.7166,3.7155,3.716,3.7158,3.7204,3.7201,3.7354,3.7373,3.7233,3.7235,3.7236,0,3.6889,3.6928,3.6947,3.697,3.6981,3.7017,3.7038,3.7028,3.705,3.7073,3.7103,3.7136,3.7163,3.7221,3.7223,3.7253,3.7244,3.7295,3.7248,3.7252,3.7246,3.7244,3.7248,3.7305,3.7307,3.7308,3.7309,0,3.7012,3.7009,3.7041,3.7073,3.7099,3.7122,3.7144,3.7163,3.7154,3.718,3.7217,3.7237,3.7277,3.7311,3.7338,3.7346,3.7326,3.7324,3.7336,3.7342,3.7344,3.7345,3.7187,3.7321,3.7319,3.7319,3.7318,3.7318,3.7102,3.7136,3.7155,3.7191,3.7206,3.7226,3.7257,3.7261,3.7292,3.7325,3.7316,3.7358,3.7373,3.7408,3.7419,3.745,3.7431,3.7449,3.7453,3.7458,3.7465,3.7338,3.7455,3.7455,3.7454,3.7454,3.7454,0,3.7226,3.7236,3.7269,3.73,3.7328,3.7307,3.7329,3.7354,3.7391,3.7408,3.7435,3.7477,3.7509,3.7513,3.7543,3.7567,3.7559,3.7576,3.7575,3.7577,3.7479,3.7467,3.7582,3.7582,3.7582,3.7582,3.7582,3.7582,3.7294,3.735,3.7349,3.7412,3.7421,3.7463,3.7477,3.7495,3.7509,3.7557,3.7584,3.7587,3.7598,3.7629,3.7657,3.7657,3.7669,3.769,3.7687,3.7596,3.7584,3.7572,3.7559,3.7693,3.7693,3.7782,3.7783,3.7783]}]]